Location: Heiligenberg
(48.5381°N, 7.3897°E)
Time: 20:53:04
(UTC+00:00)

Meteor 2-1 Rocket - Pass Details

Date: 26 May 2022
Orbit: 826 x 910 km, 81.3° (Epoch: 02 July)

Event Time Altitude Azimuth Distance (km) Brightness Sun altitude
Rises 02:42:35 0° 345° (NNW) 3,505 7.9 -7.9°
Reaches altitude 10° 02:45:05 10° 343° (NNW) 2,549 7.1 -7.6°
Maximum altitude 02:50:47 62° 264° (W) 973 4.3 -6.9°
Drops below altitude 10° 02:56:19 10° 185° (S) 2,475 6.2 -6.2°
Sets 02:58:43 0° 182° (S) 3,395 6.9 -5.9°
